Location: Waco, TX
(31.5480°N, 97.1670°W)
Time: 03:05:22
(UTC-05:00)

ISS - Pass Details

Date: 15 September 2017
Orbit: 401 x 407 km, 51.6° (Epoch: 22 September)

Event Time Altitude Azimuth Distance (km) Brightness Sun altitude
Rises 09:16:14 0° 297° (WNW) 2,326 -0.5 25.3°
Reaches altitude 10° 09:18:46 10° 277° (W) 1,461 -1.5 25.8°
Maximum altitude 09:21:03 18° 233° (SW) 1,085 -1.9 26.3°
Drops below altitude 10° 09:23:19 10° 189° (S) 1,453 -0.9 26.7°
Sets 09:25:50 0° 168° (SSE) 2,307 0.3 27.2°
